Tracking 22093 objects as of 18-Jan-2021
HD Live streaming from Space Station
objects crossing your sky now

SATCOM 2R

Track SATCOM 2R now!
SATCOM 2R is classified as:


NORAD ID: 14328
Int'l Code: 1983-094A
Perigee: 35,955.8 km
Apogee: 36,117.5 km
Inclination: 15.2 °
Period: 1,448.5 minutes
Semi major axis: 42407 km
RCS: 4.023 m2 (large)
Launch date: September 8, 1983
Source: United States (US)
Launch site: AIR FORCE EASTERN TEST RANGE (AFETR)
aabbcc
Your satellite tracking list
Your tracking list is empty




NASA's NSSDC Master Catalog

Two Line Element Set (TLE):
1 14328U 83094A   21017.64802087 -.00000015  00000-0  00000-0 0  9995
2 14328  15.2499   1.5190 0019070  19.3625 167.7637  0.99411508135901
Source of the keplerian elements: AFSPC